Weather History for KCPS - July, 2014

Change the Weather History Date:

Tuesday, July 1, 2014

  Actual Average Record
Temperature  
Mean Temperature 82 °F -  
Max Temperature 90 °F 89 °F 102 °F (2012)
Min Temperature 73 °F 72 °F 55 °F (2010)
Cooling Degree Days 17    
Growing Degree Days 32 (Base 50)    
Moisture  
Dew Point 66 °F    
Average Humidity 60    
Maximum Humidity 79    
Minimum Humidity 39    
Precipitation  
Precipitation 0.03 in - - ()
Sea Level Pressure  
Sea Level Pressure 29.82 in    
Wind  
Wind Speed 6 mph (West)    
Max Wind Speed 13 mph    
Max Gust Speed 17 mph    
Visibility 10 miles    
Events      
Averages and records for this station are not official NWS values.
T = Trace of Precipitation, MM = Missing Value Source: NWS Daily Summary

Daily Weather History Graph

Daily Weather History Graph

Search for Another Location

Airport or City:

Trip Planner

Search our weather history database for the weather conditions in past years. The results will help you decide how hot, cold, wet, or windy it might be!

Date:

Astronomy

Jul. 01, 2014 Rise Set
Actual Time 5:40 AM CDT 8:28 PM CDT
Civil Twilight 5:08 AM CDT 9:00 PM CDT
Nautical Twilight 4:28 AM CDT 9:40 PM CDT
Astronomical Twilight 3:43 AM CDT 10:25 PM CDT
Moon 9:45 AM CDT (7/1) 10:55 PM CDT (7/1)
Length of Visible Light 15h 52m
Length of Day
14h 48m
Waxing Crescent, 17% of the Moon is Illuminated
Jul 1
Waxing Crescent
Jul 5
First Quarter
Jul 12
Full
Jul 18
Last Quarter
Jul 26
New

Hourly Weather History & Observations

Time (CDT) Temp. Heat Index Dew Point Humidity Pressure Visibility Wind Dir Wind Speed Gust Speed Precip Events Conditions
12:53 AM 82.9 °F 87.5 °F 71.1 °F 67% 29.77 in 10.0 mi SSW 8.1 mph 17.3 mph N/A   Mostly Cloudy
1:53 AM 82.0 °F 86.3 °F 71.1 °F 69% 29.76 in 10.0 mi SW 10.4 mph 17.3 mph N/A   Clear
2:53 AM 81.0 °F 84.9 °F 71.1 °F 72% 29.74 in 10.0 mi SW 4.6 mph - N/A   Clear
3:53 AM 78.1 °F - 71.1 °F 79% 29.76 in 10.0 mi NW 4.6 mph - N/A   Clear
4:53 AM 79.0 °F - 69.1 °F 72% 29.78 in 10.0 mi SW 3.5 mph - N/A   Clear
5:53 AM 78.1 °F - 69.1 °F 74% 29.81 in 10.0 mi WNW 4.6 mph - N/A   Mostly Cloudy
6:53 AM 80.1 °F 82.1 °F 66.0 °F 62% 29.83 in 10.0 mi WNW 8.1 mph - N/A   Partly Cloudy
7:53 AM 81.0 °F 84.1 °F 69.1 °F 67% 29.81 in 10.0 mi WSW 5.8 mph - N/A   Clear
8:53 AM 82.0 °F 86.3 °F 71.1 °F 69% 29.83 in 10.0 mi West 8.1 mph - N/A   Clear
9:53 AM 84.0 °F 87.8 °F 69.1 °F 61% 29.81 in 10.0 mi WNW 4.6 mph - N/A   Clear
10:53 AM 82.0 °F 83.8 °F 64.9 °F 56% 29.82 in 10.0 mi Variable 3.5 mph - N/A   Clear
11:53 AM 86.0 °F 88.8 °F 66.9 °F 53% 29.83 in 10.0 mi Variable 3.5 mph - N/A   Clear
12:53 PM 89.1 °F 89.3 °F 62.1 °F 40% 29.83 in 10.0 mi Calm Calm - N/A   Clear
1:53 PM 87.1 °F 87.8 °F 63.0 °F 44% 29.85 in 10.0 mi West 9.2 mph - N/A   Mostly Cloudy
2:53 PM 89.1 °F 89.0 °F 61.0 °F 39% 29.84 in 10.0 mi NW 12.7 mph - N/A   Mostly Cloudy
3:53 PM 84.9 °F 85.9 °F 63.0 °F 48% 29.83 in 10.0 mi NW 9.2 mph - N/A   Overcast
4:53 PM 84.0 °F 86.3 °F 66.0 °F 55% 29.80 in 10.0 mi Calm Calm - 0.03 in   Mostly Cloudy
5:53 PM 82.9 °F 87.5 °F 71.1 °F 67% 29.81 in 10.0 mi SE 4.6 mph - N/A   Clear
6:53 PM 84.0 °F 84.4 °F 61.0 °F 46% 29.82 in 10.0 mi West 8.1 mph - N/A   Clear
7:53 PM 82.0 °F 82.0 °F 57.9 °F 44% 29.84 in 10.0 mi West 4.6 mph - N/A   Clear
8:53 PM 78.1 °F - 62.1 °F 58% 29.86 in 10.0 mi WSW 5.8 mph - N/A   Clear
9:53 PM 75.9 °F - 64.0 °F 67% 29.89 in 10.0 mi WSW 4.6 mph - N/A   Clear
10:53 PM 75.0 °F - 64.0 °F 69% 29.89 in 10.0 mi WSW 4.6 mph - N/A   Clear
11:53 PM 73.9 °F - 64.0 °F 71% 29.91 in 10.0 mi SW 4.6 mph - N/A   Clear